Time,TemperatureF,DewpointF,PressureIn,WindDirection,WindDirectionDegrees,WindSpeedMPH,WindSpeedGustMPH,Humidity,HourlyPrecipIn,Conditions,Clouds,dailyrainin,SolarRadiationWatts/m^2,SoftwareType,DateUTC
2013-03-02 00:00:00,54.9,51.1,30.10,NW,309,0.0,-999.0,87,0.00,,,0.00,0.00,,2013-03-02 08:00:00,
2013-03-02 00:10:00,53.2,49.7,30.10,NW,309,0.0,-999.0,88,0.00,,,0.00,1.47,,2013-03-02 08:10:00,
2013-03-02 00:15:00,54.2,51.4,30.10,NW,309,0.0,-999.0,90,0.00,,,0.00,0.00,,2013-03-02 08:15:00,
2013-03-02 00:20:00,54.4,52.0,30.10,NW,309,0.0,-999.0,91,0.00,,,0.00,0.00,,2013-03-02 08:20:00,
2013-03-02 00:25:00,54.3,51.8,30.10,NW,309,0.0,-999.0,91,0.00,,,0.00,0.00,,2013-03-02 08:25:00,
2013-03-02 00:30:00,54.0,51.6,30.10,NW,309,0.0,-999.0,92,0.00,,,0.00,0.00,,2013-03-02 08:30:00,
2013-03-02 00:35:00,52.5,49.7,30.10,NW,309,0.0,-999.0,90,0.00,,,0.00,0.00,,2013-03-02 08:35:00,
2013-03-02 00:40:00,52.5,49.9,30.10,NW,309,0.0,-999.0,91,0.00,,,0.00,0.00,,2013-03-02 08:40:00,
2013-03-02 00:45:00,54.0,52.2,30.11,NW,309,0.0,-999.0,94,0.00,,,0.00,1.22,,2013-03-02 08:45:00,
2013-03-02 00:50:00,52.7,50.3,30.10,NW,309,0.0,-999.0,92,0.00,,,0.00,0.00,,2013-03-02 08:50:00,
2013-03-02 00:55:00,52.7,50.7,30.10,NW,309,0.0,-999.0,93,0.00,,,0.00,0.85,,2013-03-02 08:55:00,
2013-03-02 01:00:00,53.2,51.3,30.10,NW,309,0.0,-999.0,93,0.00,,,0.00,0.37,,2013-03-02 09:00:00,
2013-03-02 01:10:00,54.7,52.6,30.10,NW,309,0.0,-999.0,92,0.00,,,0.00,0.06,,2013-03-02 09:10:00,
2013-03-02 01:15:00,54.4,51.8,30.09,NW,309,0.0,-999.0,91,0.00,,,0.00,1.22,,2013-03-02 09:15:00,
2013-03-02 01:20:00,54.8,52.5,30.10,NW,309,0.0,-999.0,92,0.00,,,0.00,1.22,,2013-03-02 09:20:00,
2013-03-02 01:25:00,54.2,50.8,30.10,NW,309,0.0,-999.0,88,0.00,,,0.00,0.18,,2013-03-02 09:25:00,
2013-03-02 01:30:00,55.3,51.9,30.10,NNE,20,0.0,-999.0,88,0.00,,,0.00,0.00,,2013-03-02 09:30:00,
2013-03-02 01:35:00,55.0,50.5,30.10,North,8,0.0,-999.0,85,0.00,,,0.00,0.00,,2013-03-02 09:35:00,
2013-03-02 01:40:00,54.6,50.0,30.09,NE,52,0.0,-999.0,84,0.00,,,0.00,0.61,,2013-03-02 09:40:00,
2013-03-02 01:45:00,54.6,49.8,30.10,ENE,58,0.0,-999.0,84,0.00,,,0.00,0.49,,2013-03-02 09:45:00,
2013-03-02 01:50:00,55.0,50.2,30.10,NE,52,0.0,-999.0,84,0.00,,,0.00,0.00,,2013-03-02 09:50:00,
2013-03-02 01:55:00,55.5,49.2,30.09,North,5,0.0,-999.0,79,0.00,,,0.00,0.43,,2013-03-02 09:55:00,
2013-03-02 02:00:00,55.3,48.8,30.09,NNE,16,3.4,-999.0,79,0.00,,,0.00,0.98,,2013-03-02 10:00:00,
2013-03-02 02:05:00,55.0,48.2,30.08,NNE,16,2.5,-999.0,78,0.00,,,0.00,0.12,,2013-03-02 10:05:00,
2013-03-02 02:10:00,55.0,48.3,30.07,NW,321,3.4,-999.0,78,0.00,,,0.00,0.85,,2013-03-02 10:10:00,
2013-03-02 02:15:00,54.4,48.1,30.08,NNE,24,0.0,-999.0,79,0.00,,,0.00,0.00,,2013-03-02 10:15:00,
2013-03-02 02:25:00,53.6,48.3,30.08,ESE,103,0.0,-999.0,82,0.00,,,0.00,0.06,,2013-03-02 10:25:00,
2013-03-02 02:30:00,53.4,48.6,30.06,West,274,0.0,-999.0,83,0.00,,,0.00,0.00,,2013-03-02 10:30:00,
2013-03-02 02:35:00,53.9,49.5,30.06,North,7,0.0,-999.0,85,0.00,,,0.00,0.73,,2013-03-02 10:35:00,
2013-03-02 02:45:00,54.3,49.9,30.07,NNW,334,1.0,-999.0,85,0.00,,,0.00,0.73,,2013-03-02 10:45:00,
2013-03-02 02:50:00,53.8,49.5,30.05,ENE,59,0.0,-999.0,85,0.00,,,0.00,0.00,,2013-03-02 10:50:00,
2013-03-02 02:55:00,54.2,50.0,30.06,ENE,66,0.0,-999.0,86,0.00,,,0.00,0.98,,2013-03-02 10:55:00,
2013-03-02 03:00:00,54.5,50.4,30.06,NE,37,0.0,-999.0,86,0.00,,,0.00,0.49,,2013-03-02 11:00:00,
2013-03-02 03:05:00,54.1,50.0,30.06,NE,37,0.0,-999.0,86,0.00,,,0.00,0.31,,2013-03-02 11:05:00,
2013-03-02 03:10:00,54.1,50.1,30.06,ENE,73,0.0,-999.0,86,0.00,,,0.00,0.00,,2013-03-02 11:10:00,
2013-03-02 03:15:00,54.3,50.2,30.06,NE,36,0.0,-999.0,86,0.00,,,0.00,0.18,,2013-03-02 11:15:00,
2013-03-02 03:20:00,53.5,49.4,30.06,NE,36,0.0,-999.0,86,0.00,,,0.00,1.22,,2013-03-02 11:20:00,
2013-03-02 03:30:00,54.9,50.0,30.05,NNE,14,3.2,-999.0,83,0.00,,,0.00,0.43,,2013-03-02 11:30:00,
2013-03-02 03:35:00,55.0,49.2,30.05,North,351,1.5,-999.0,81,0.00,,,0.00,0.49,,2013-03-02 11:35:00,
2013-03-02 03:40:00,54.8,48.8,30.05,NE,37,0.0,-999.0,80,0.00,,,0.00,0.67,,2013-03-02 11:40:00,
2013-03-02 03:45:00,54.2,48.2,30.04,NNW,337,0.0,-999.0,80,0.00,,,0.00,0.00,,2013-03-02 11:45:00,
2013-03-02 03:50:00,54.1,48.7,30.05,NNW,337,0.0,-999.0,82,0.00,,,0.00,0.00,,2013-03-02 11:50:00,
2013-03-02 03:55:00,54.2,49.2,30.05,East,84,0.0,-999.0,83,0.00,,,0.00,0.00,,2013-03-02 11:55:00,
2013-03-02 04:00:00,54.4,49.4,30.05,NNE,23,0.0,-999.0,83,0.00,,,0.00,0.49,,2013-03-02 12:00:00,
2013-03-02 04:05:00,53.5,48.5,30.05,NNE,23,0.0,-999.0,83,0.00,,,0.00,0.00,,2013-03-02 12:05:00,
2013-03-02 04:10:00,53.9,49.4,30.05,NNE,22,0.0,-999.0,85,0.00,,,0.00,0.49,,2013-03-02 12:10:00,
2013-03-02 04:15:00,53.9,49.2,30.06,East,92,0.0,-999.0,84,0.00,,,0.00,0.49,,2013-03-02 12:15:00,
2013-03-02 04:20:00,53.7,49.0,30.05,ENE,72,0.0,-999.0,84,0.00,,,0.00,0.24,,2013-03-02 12:20:00,
2013-03-02 04:25:00,53.7,49.2,30.05,East,84,0.0,-999.0,85,0.00,,,0.00,0.98,,2013-03-02 12:25:00,
2013-03-02 04:30:00,53.6,49.3,30.06,NE,54,0.0,-999.0,85,0.00,,,0.00,0.73,,2013-03-02 12:30:00,
2013-03-02 04:35:00,53.6,49.6,30.04,NE,41,0.0,-999.0,86,0.00,,,0.00,0.98,,2013-03-02 12:35:00,
2013-03-02 04:40:00,53.3,49.2,30.04,ENE,70,0.0,-999.0,86,0.00,,,0.00,0.00,,2013-03-02 12:40:00,
2013-03-02 04:45:00,53.8,49.9,30.04,NW,326,1.3,-999.0,87,0.00,,,0.00,0.06,,2013-03-02 12:45:00,
2013-03-02 04:50:00,53.6,48.9,30.05,ENE,65,0.0,-999.0,84,0.00,,,0.00,0.73,,2013-03-02 12:50:00,
2013-03-02 04:55:00,53.2,48.6,30.04,ENE,64,0.0,-999.0,84,0.00,,,0.00,0.00,,2013-03-02 12:55:00,
2013-03-02 05:00:00,53.7,49.3,30.04,NNE,28,3.7,-999.0,85,0.00,,,0.00,0.31,,2013-03-02 13:00:00,
2013-03-02 05:05:00,53.7,49.1,30.05,NNE,12,1.3,-999.0,84,0.00,,,0.00,0.73,,2013-03-02 13:05:00,
2013-03-02 05:10:00,53.6,49.3,30.04,North,9,0.0,-999.0,85,0.00,,,0.00,1.40,,2013-03-02 13:10:00,
2013-03-02 05:15:00,53.6,49.3,30.05,ENE,61,0.0,-999.0,85,0.00,,,0.00,0.24,,2013-03-02 13:15:00,
2013-03-02 05:20:00,53.8,49.7,30.05,ENE,60,0.0,-999.0,86,0.00,,,0.00,0.43,,2013-03-02 13:20:00,
2013-03-02 05:25:00,53.9,50.2,30.05,ENE,60,0.0,-999.0,87,0.00,,,0.00,0.61,,2013-03-02 13:25:00,
2013-03-02 05:30:00,53.7,49.5,30.05,ENE,64,0.0,-999.0,86,0.00,,,0.00,0.00,,2013-03-02 13:30:00,
2013-03-02 05:35:00,53.5,49.7,30.04,NE,45,0.0,-999.0,87,0.00,,,0.00,0.06,,2013-03-02 13:35:00,
2013-03-02 05:40:00,53.6,50.0,30.05,NE,45,0.0,-999.0,88,0.00,,,0.00,0.00,,2013-03-02 13:40:00,
2013-03-02 05:45:00,53.0,49.6,30.05,NE,45,0.0,-999.0,88,0.00,,,0.00,0.12,,2013-03-02 13:45:00,
2013-03-02 05:50:00,53.5,50.2,30.05,East,84,0.0,-999.0,88,0.00,,,0.00,0.00,,2013-03-02 13:50:00,
2013-03-02 05:55:00,53.8,50.3,30.03,WNW,293,3.2,-999.0,88,0.00,,,0.00,0.49,,2013-03-02 13:55:00,
2013-03-02 06:00:00,53.4,49.9,30.05,SE,133,0.0,-999.0,88,0.00,,,0.00,0.37,,2013-03-02 14:00:00,
2013-03-02 06:05:00,53.3,49.8,30.04,ENE,76,0.0,-999.0,88,0.00,,,0.00,0.00,,2013-03-02 14:05:00,
2013-03-02 06:10:00,53.2,49.9,30.05,ESE,105,0.0,-999.0,88,0.00,,,0.00,0.00,,2013-03-02 14:10:00,
2013-03-02 06:15:00,52.9,49.7,30.04,ESE,105,0.0,-999.0,89,0.00,,,0.00,0.00,,2013-03-02 14:15:00,
2013-03-02 06:20:00,53.0,49.8,30.06,East,95,0.0,-999.0,89,0.00,,,0.00,0.06,,2013-03-02 14:20:00,
2013-03-02 06:25:00,53.1,50.1,30.05,ENE,67,0.0,-999.0,90,0.00,,,0.00,0.31,,2013-03-02 14:25:00,
2013-03-02 06:30:00,53.5,50.5,30.04,East,89,0.0,-999.0,90,0.00,,,0.00,1.83,,2013-03-02 14:30:00,
2013-03-02 06:35:00,53.3,50.5,30.06,East,89,0.0,-999.0,90,0.00,,,0.00,1.47,,2013-03-02 14:35:00,
2013-03-02 06:40:00,53.2,50.4,30.06,East,88,0.0,-999.0,90,0.00,,,0.00,2.81,,2013-03-02 14:40:00,
2013-03-02 06:45:00,53.5,50.9,30.04,WNW,288,0.0,-999.0,91,0.00,,,0.00,5.37,,2013-03-02 14:45:00,
2013-03-02 06:50:00,52.7,50.0,30.05,WNW,288,0.0,-999.0,90,0.00,,,0.00,9.04,,2013-03-02 14:50:00,
2013-03-02 06:55:00,52.9,50.4,30.05,WNW,288,0.0,-999.0,91,0.00,,,0.00,15.63,,2013-03-02 14:55:00,
2013-03-02 07:00:00,53.4,50.9,30.05,WSW,255,0.0,-999.0,91,0.00,,,0.00,22.47,,2013-03-02 15:00:00,
2013-03-02 07:05:00,53.3,50.7,30.05,WSW,255,0.0,-999.0,91,0.00,,,0.00,34.07,,2013-03-02 15:05:00,
2013-03-02 07:10:00,53.3,50.7,30.06,WSW,255,0.0,-999.0,91,0.00,,,0.00,45.85,,2013-03-02 15:10:00,
2013-03-02 07:15:00,53.7,51.0,30.06,WSW,255,0.0,-999.0,91,0.00,,,0.00,52.26,,2013-03-02 15:15:00,
2013-03-02 07:20:00,53.9,51.2,30.05,WSW,255,0.0,-999.0,91,0.00,,,0.00,54.76,,2013-03-02 15:20:00,
2013-03-02 07:25:00,55.2,51.4,30.06,West,274,2.0,-999.0,87,0.00,,,0.00,98.53,,2013-03-02 15:25:00,
2013-03-02 07:30:00,55.5,49.9,30.06,NNW,339,1.3,-999.0,81,0.00,,,0.00,105.86,,2013-03-02 15:30:00,
2013-03-02 07:35:00,55.7,49.2,30.05,NW,316,1.0,-999.0,79,0.00,,,0.00,118.93,,2013-03-02 15:35:00,
2013-03-02 07:40:00,55.1,48.4,30.04,NE,38,4.7,-999.0,78,0.00,,,0.00,110.07,,2013-03-02 15:40:00,
2013-03-02 07:45:00,55.0,48.5,30.05,NW,324,3.2,-999.0,79,0.00,,,0.00,101.10,,2013-03-02 15:45:00,
2013-03-02 07:50:00,55.6,49.3,30.05,North,5,0.0,-999.0,79,0.00,,,0.00,136.51,,2013-03-02 15:50:00,
2013-03-02 07:55:00,55.4,47.9,30.04,NNW,337,4.0,-999.0,76,0.00,,,0.00,125.27,,2013-03-02 15:55:00,
2013-03-02 08:00:00,55.7,47.8,30.06,NW,318,3.0,-999.0,75,0.00,,,0.00,114.53,,2013-03-02 16:00:00,
2013-03-02 08:05:00,55.7,47.9,30.05,NW,319,1.8,-999.0,75,0.00,,,0.00,95.24,,2013-03-02 16:05:00,
2013-03-02 08:10:00,55.5,47.6,30.05,NNW,329,3.0,-999.0,75,0.00,,,0.00,103.30,,2013-03-02 16:10:00,
2013-03-02 08:15:00,55.8,48.3,30.06,NW,307,0.0,-999.0,76,0.00,,,0.00,129.73,,2013-03-02 16:15:00,
2013-03-02 08:20:00,57.2,49.3,30.05,WNW,303,0.0,-999.0,75,0.00,,,0.00,142.86,,2013-03-02 16:20:00,
2013-03-02 08:25:00,56.4,48.1,30.06,NNW,340,0.0,-999.0,74,0.00,,,0.00,163.43,,2013-03-02 16:25:00,
2013-03-02 08:30:00,56.2,47.4,30.06,NNW,330,1.0,-999.0,72,0.00,,,0.00,155.56,,2013-03-02 16:30:00,
2013-03-02 08:35:00,58.2,49.6,30.05,NW,311,0.0,-999.0,73,0.00,,,0.00,171.92,,2013-03-02 16:35:00,
2013-03-02 08:40:00,58.7,49.0,30.06,NW,311,0.0,-999.0,70,0.00,,,0.00,193.16,,2013-03-02 16:40:00,
2013-03-02 08:45:00,59.0,48.6,30.05,NW,311,0.0,-999.0,68,0.00,,,0.00,200.55,,2013-03-02 16:45:00,
2013-03-02 08:50:00,57.4,45.6,30.05,NNW,331,1.0,-999.0,65,0.00,,,0.00,171.67,,2013-03-02 16:50:00,
2013-03-02 08:55:00,58.6,47.0,30.04,NE,51,0.0,-999.0,65,0.00,,,0.00,184.74,,2013-03-02 16:55:00,
2013-03-02 09:00:00,58.4,46.2,30.05,SSE,163,0.0,-999.0,64,0.00,,,0.00,201.65,,2013-03-02 17:00:00,
2013-03-02 09:05:00,58.5,45.6,30.06,NNW,334,1.1,-999.0,62,0.00,,,0.00,226.43,,2013-03-02 17:05:00,
2013-03-02 09:10:00,57.9,44.6,30.05,NNW,339,1.3,-999.0,61,0.00,,,0.00,231.56,,2013-03-02 17:10:00,
2013-03-02 09:15:00,59.8,47.5,30.05,NW,323,0.0,-999.0,64,0.00,,,0.00,285.71,,2013-03-02 17:15:00,
2013-03-02 09:20:00,59.1,44.7,30.05,NW,323,0.0,-999.0,59,0.00,,,0.00,264.04,,2013-03-02 17:20:00,
2013-03-02 09:25:00,58.8,43.7,30.05,NE,36,0.0,-999.0,57,0.00,,,0.00,232.05,,2013-03-02 17:25:00,
2013-03-02 09:30:00,60.1,44.9,30.04,NNW,339,1.0,-999.0,57,0.00,,,0.00,337.48,,2013-03-02 17:30:00,
2013-03-02 09:35:00,60.0,44.1,30.04,NW,316,1.5,-999.0,56,0.00,,,0.00,388.77,,2013-03-02 17:35:00,
2013-03-02 09:40:00,61.2,45.2,30.04,North,7,0.0,-999.0,56,0.00,,,0.00,423.44,,2013-03-02 17:40:00,
2013-03-02 09:45:00,61.5,44.2,30.05,NW,317,0.0,-999.0,53,0.00,,,0.00,463.13,,2013-03-02 17:45:00,
2013-03-02 09:50:00,61.3,43.4,30.04,North,11,1.8,-999.0,52,0.00,,,0.00,336.33,,2013-03-02 17:50:00,
2013-03-02 09:55:00,60.0,42.8,30.04,NW,323,3.2,-999.0,53,0.00,,,0.00,257.39,,2013-03-02 17:55:00,
2013-03-02 10:00:00,60.9,43.4,30.04,NNW,331,1.3,-999.0,52,0.00,,,0.00,321.31,,2013-03-02 18:00:00,
2013-03-02 10:05:00,59.2,41.4,30.04,NW,316,5.2,-999.0,51,0.00,,,0.00,514.59,,2013-03-02 18:05:00,
2013-03-02 10:10:00,60.2,42.5,30.04,NW,323,4.9,-999.0,52,0.00,,,0.00,383.39,,2013-03-02 18:10:00,
2013-03-02 10:15:00,60.9,43.5,30.04,NNW,341,6.3,-999.0,53,0.00,,,0.00,436.87,,2013-03-02 18:15:00,
2013-03-02 10:20:00,60.5,42.7,30.04,NW,323,5.2,-999.0,52,0.00,,,0.00,410.50,,2013-03-02 18:20:00,
2013-03-02 10:25:00,60.5,42.0,30.04,WNW,301,5.1,-999.0,50,0.00,,,0.00,466.97,,2013-03-02 18:25:00,
2013-03-02 10:30:00,61.0,42.4,30.04,NNW,341,4.0,-999.0,50,0.00,,,0.00,440.72,,2013-03-02 18:30:00,
2013-03-02 10:35:00,60.8,42.1,30.03,NNW,328,7.1,-999.0,50,0.00,,,0.00,384.86,,2013-03-02 18:35:00,
2013-03-02 10:40:00,61.8,43.6,30.03,West,279,2.8,-999.0,51,0.00,,,0.00,404.33,,2013-03-02 18:40:00,
2013-03-02 10:45:00,60.7,41.6,30.03,NNW,335,2.8,-999.0,49,0.00,,,0.00,338.22,,2013-03-02 18:45:00,
2013-03-02 10:50:00,62.2,42.1,30.03,NNW,338,6.4,-999.0,48,0.00,,,0.00,573.14,,2013-03-02 18:50:00,
2013-03-02 10:55:00,61.9,43.0,30.04,NNW,340,3.7,-999.0,50,0.00,,,0.00,434.43,,2013-03-02 18:55:00,
2013-03-02 11:00:00,61.3,41.1,30.02,WNW,299,6.3,-999.0,47,0.00,,,0.00,497.50,,2013-03-02 19:00:00,
2013-03-02 11:05:00,62.8,41.8,30.03,NW,317,1.5,-999.0,46,0.00,,,0.00,613.68,,2013-03-02 19:05:00,
2013-03-02 11:10:00,63.6,41.7,30.02,NNW,346,1.8,-999.0,45,0.00,,,0.00,431.69,,2013-03-02 19:10:00,
2013-03-02 11:15:00,62.6,41.5,30.03,NW,309,4.2,-999.0,46,0.00,,,0.00,397.86,,2013-03-02 19:15:00,
2013-03-02 11:20:00,61.6,39.8,30.02,NW,319,6.8,-999.0,45,0.00,,,0.00,329.49,,2013-03-02 19:20:00,
2013-03-02 11:25:00,68.3,45.5,30.02,SW,217,1.6,-999.0,44,0.00,,,0.00,727.53,,2013-03-02 19:25:00,
2013-03-02 11:30:00,64.0,40.4,30.03,NNW,333,6.6,-999.0,42,0.00,,,0.00,677.66,,2013-03-02 19:30:00,
2013-03-02 11:35:00,64.0,40.3,30.02,NW,317,3.0,-999.0,42,0.00,,,0.00,237.18,,2013-03-02 19:35:00,
2013-03-02 11:40:00,63.1,39.7,30.01,NNW,347,1.1,-999.0,42,0.00,,,0.00,227.90,,2013-03-02 19:40:00,
2013-03-02 11:45:00,63.9,41.0,29.99,North,0,0.0,-999.0,43,0.00,,,0.00,445.54,,2013-03-02 19:45:00,
2013-03-02 11:50:00,64.6,41.1,30.00,North,6,2.3,-999.0,42,0.00,,,0.00,463.55,,2013-03-02 19:50:00,
2013-03-02 11:55:00,63.8,40.0,30.00,North,2,2.8,-999.0,42,0.00,,,0.00,309.46,,2013-03-02 19:55:00,
2013-03-02 12:00:00,64.8,40.0,29.99,ENE,77,0.0,-999.0,40,0.00,,,0.00,336.26,,2013-03-02 20:00:00,
2013-03-02 12:05:00,66.7,40.8,30.00,WNW,298,0.0,-999.0,39,0.00,,,0.00,374.60,,2013-03-02 20:05:00,
2013-03-02 12:10:00,66.5,40.7,29.99,North,351,0.0,-999.0,39,0.00,,,0.00,366.67,,2013-03-02 20:10:00,
2013-03-02 12:15:00,66.6,40.2,29.99,North,1,1.5,-999.0,38,0.00,,,0.00,370.39,,2013-03-02 20:15:00,
2013-03-02 12:20:00,67.6,41.9,30.00,NNW,342,0.0,-999.0,39,0.00,,,0.00,313.31,,2013-03-02 20:20:00,
2013-03-02 12:25:00,66.0,39.5,29.99,North,0,0.0,-999.0,38,0.00,,,0.00,305.25,,2013-03-02 20:25:00,
2013-03-02 12:30:00,68.2,41.2,29.99,North,8,0.0,-999.0,37,0.00,,,0.00,305.25,,2013-03-02 20:30:00,
2013-03-02 12:35:00,65.8,40.8,29.98,NW,322,5.6,-999.0,40,0.00,,,0.00,243.53,,2013-03-02 20:35:00,
2013-03-02 12:40:00,65.9,41.7,29.98,NNW,330,2.0,-999.0,41,0.00,,,0.00,308.91,,2013-03-02 20:40:00,
2013-03-02 12:45:00,65.5,42.2,29.98,North,0,3.7,-999.0,43,0.00,,,0.00,460.01,,2013-03-02 20:45:00,
2013-03-02 12:50:00,63.9,40.8,29.98,NW,312,4.7,-999.0,43,0.00,,,0.00,384.62,,2013-03-02 20:50:00,
2013-03-02 12:55:00,65.8,42.5,29.98,NNW,344,5.1,-999.0,43,0.00,,,0.00,312.76,,2013-03-02 20:55:00,
2013-03-02 13:00:00,65.6,42.1,29.98,WNW,297,3.5,-999.0,42,0.00,,,0.00,302.69,,2013-03-02 21:00:00,
2013-03-02 13:05:00,65.3,42.5,29.98,WNW,283,1.5,-999.0,43,0.00,,,0.00,308.67,,2013-03-02 21:05:00,
2013-03-02 13:10:00,65.5,42.1,29.98,WSW,249,3.5,-999.0,42,0.00,,,0.00,328.21,,2013-03-02 21:10:00,
2013-03-02 13:15:00,63.3,43.4,29.98,SW,226,4.0,-999.0,48,0.00,,,0.00,301.89,,2013-03-02 21:15:00,
2013-03-02 13:20:00,61.9,43.9,29.98,WSW,242,5.4,-999.0,52,0.00,,,0.00,287.91,,2013-03-02 21:20:00,
2013-03-02 13:25:00,60.7,44.2,29.98,South,184,8.3,-999.0,55,0.00,,,0.00,314.16,,2013-03-02 21:25:00,
2013-03-02 13:30:00,59.7,44.8,29.97,WNW,293,1.0,-999.0,58,0.00,,,0.00,319.96,,2013-03-02 21:30:00,
2013-03-02 13:35:00,59.1,44.2,29.95,SSW,204,7.8,-999.0,58,0.00,,,0.00,419.84,,2013-03-02 21:35:00,
2013-03-02 13:40:00,58.6,44.3,29.97,SSW,208,7.3,-999.0,59,0.00,,,0.00,285.29,,2013-03-02 21:40:00,
2013-03-02 13:45:00,58.7,44.7,29.96,SSW,203,6.3,-999.0,60,0.00,,,0.00,310.38,,2013-03-02 21:45:00,
2013-03-02 13:50:00,58.2,45.1,29.97,South,171,10.0,-999.0,62,0.00,,,0.00,303.36,,2013-03-02 21:50:00,
2013-03-02 13:55:00,57.4,45.5,29.97,South,189,3.9,-999.0,64,0.00,,,0.00,296.76,,2013-03-02 21:55:00,
2013-03-02 14:00:00,57.1,45.3,29.97,WSW,239,8.0,-999.0,65,0.00,,,0.00,332.17,,2013-03-02 22:00:00,
2013-03-02 14:05:00,57.7,46.1,29.96,SW,228,8.1,-999.0,65,0.00,,,0.00,307.81,,2013-03-02 22:05:00,
2013-03-02 14:10:00,57.6,46.3,29.97,SSW,207,8.0,-999.0,66,0.00,,,0.00,299.39,,2013-03-02 22:10:00,
2013-03-02 14:15:00,56.7,45.7,29.98,SSW,208,12.1,-999.0,67,0.00,,,0.00,263.06,,2013-03-02 22:15:00,
2013-03-02 14:20:00,57.2,46.2,29.96,SSW,210,9.0,-999.0,67,0.00,,,0.00,341.09,,2013-03-02 22:20:00,
2013-03-02 14:25:00,57.3,45.5,29.96,SW,234,9.5,-999.0,65,0.00,,,0.00,235.16,,2013-03-02 22:25:00,
2013-03-02 14:30:00,57.0,45.4,29.96,South,183,9.5,-999.0,65,0.00,,,0.00,219.54,,2013-03-02 22:30:00,
2013-03-02 14:35:00,57.5,45.6,29.95,SSW,198,6.8,-999.0,64,0.00,,,0.00,201.53,,2013-03-02 22:35:00,
2013-03-02 14:40:00,57.9,45.8,29.95,WSW,241,4.2,-999.0,64,0.00,,,0.00,199.76,,2013-03-02 22:40:00,
2013-03-02 14:45:00,58.7,46.1,29.95,West,267,3.4,-999.0,63,0.00,,,0.00,216.42,,2013-03-02 22:45:00,
2013-03-02 14:50:00,57.8,45.2,29.95,SW,221,9.8,-999.0,63,0.00,,,0.00,220.76,,2013-03-02 22:50:00,
2013-03-02 14:55:00,58.3,45.2,29.95,WSW,242,5.2,-999.0,62,0.00,,,0.00,203.91,,2013-03-02 22:55:00,
2013-03-02 15:00:00,58.7,45.9,29.95,South,181,4.9,-999.0,62,0.00,,,0.00,171.67,,2013-03-02 23:00:00,
2013-03-02 15:05:00,58.3,45.2,29.95,South,185,9.5,-999.0,62,0.00,,,0.00,144.38,,2013-03-02 23:05:00,
2013-03-02 15:10:00,57.8,45.0,29.96,South,182,10.7,-999.0,62,0.00,,,0.00,135.29,,2013-03-02 23:10:00,
2013-03-02 15:15:00,57.8,45.2,29.95,SW,219,7.3,-999.0,63,0.00,,,0.00,155.37,,2013-03-02 23:15:00,
2013-03-02 15:20:00,58.2,45.5,29.95,SW,220,4.5,-999.0,63,0.00,,,0.00,154.64,,2013-03-02 23:20:00,
2013-03-02 15:25:00,57.7,44.9,29.95,SSW,206,5.4,-999.0,62,0.00,,,0.00,130.16,,2013-03-02 23:25:00,
2013-03-02 15:30:00,57.6,45.4,29.95,WSW,252,6.6,-999.0,64,0.00,,,0.00,115.02,,2013-03-02 23:30:00,
2013-03-02 15:35:00,57.4,45.5,29.94,SW,233,8.0,-999.0,64,0.00,,,0.00,91.82,,2013-03-02 23:35:00,
2013-03-02 15:40:00,57.1,45.4,29.94,SW,214,7.4,-999.0,65,0.00,,,0.00,84.00,,2013-03-02 23:40:00,
2013-03-02 15:45:00,56.9,45.9,29.94,SSW,213,10.4,-999.0,66,0.00,,,0.00,83.52,,2013-03-02 23:45:00,
2013-03-02 15:50:00,56.4,45.6,29.94,SW,217,11.4,-999.0,67,0.00,,,0.00,80.16,,2013-03-02 23:50:00,
2013-03-02 15:55:00,56.2,46.0,29.94,WSW,241,8.5,-999.0,68,0.00,,,0.00,76.86,,2013-03-02 23:55:00,
2013-03-02 16:00:00,55.8,46.5,29.94,SW,223,5.8,-999.0,71,0.00,,,0.00,81.81,,2013-03-03 00:00:00,
2013-03-02 16:05:00,55.9,47.3,29.93,SW,222,5.4,-999.0,73,0.00,,,0.00,103.54,,2013-03-03 00:05:00,
2013-03-02 16:10:00,55.5,46.8,29.94,WSW,246,7.3,-999.0,72,0.00,,,0.00,101.40,,2013-03-03 00:10:00,
2013-03-02 16:15:00,55.9,47.4,29.93,SW,232,3.2,-999.0,73,0.00,,,0.00,93.53,,2013-03-03 00:15:00,
2013-03-02 16:20:00,55.6,46.7,29.93,WSW,238,5.8,-999.0,72,0.00,,,0.00,82.72,,2013-03-03 00:20:00,
2013-03-02 16:25:00,54.4,46.3,29.93,SSW,201,7.3,-999.0,74,0.00,,,0.00,66.73,,2013-03-03 00:25:00,
2013-03-02 16:30:00,54.0,47.0,29.93,SW,227,8.0,-999.0,77,0.00,,,0.00,71.00,,2013-03-03 00:30:00,
2013-03-02 16:35:00,53.8,47.5,29.94,SW,227,11.2,-999.0,79,0.00,,,0.00,86.02,,2013-03-03 00:35:00,
2013-03-02 16:40:00,53.5,47.6,29.94,SW,223,6.8,-999.0,80,0.00,,,0.00,80.16,,2013-03-03 00:40:00,
2013-03-02 16:45:00,53.1,47.7,29.93,WSW,240,9.8,-999.0,82,0.00,,,0.00,79.43,,2013-03-03 00:45:00,
2013-03-02 16:50:00,53.2,48.3,29.93,SW,235,7.3,-999.0,83,0.00,,,0.00,64.22,,2013-03-03 00:50:00,
2013-03-02 16:55:00,52.5,47.8,29.93,SW,224,8.1,-999.0,84,0.00,,,0.00,41.27,,2013-03-03 00:55:00,
2013-03-02 17:00:00,52.6,48.5,29.94,SW,235,7.4,-999.0,86,0.00,,,0.00,29.49,,2013-03-03 01:00:00,
2013-03-02 17:05:00,52.4,48.4,29.94,South,184,7.3,-999.0,86,0.00,,,0.00,29.67,,2013-03-03 01:05:00,
2013-03-02 17:10:00,52.0,48.5,29.94,SSW,211,8.3,-999.0,88,0.00,,,0.00,27.66,,2013-03-03 01:10:00,
2013-03-02 17:15:00,51.9,48.5,29.95,SSW,213,10.4,-999.0,88,0.00,,,0.00,31.75,,2013-03-03 01:15:00,
2013-03-02 17:20:00,52.3,48.8,29.95,SSW,210,6.9,-999.0,88,0.00,,,0.00,35.71,,2013-03-03 01:20:00,
2013-03-02 17:25:00,52.2,48.4,29.96,WSW,247,10.0,-999.0,87,0.00,,,0.00,38.58,,2013-03-03 01:25:00,
2013-03-02 17:30:00,51.7,48.3,29.95,SW,231,7.4,-999.0,88,0.00,,,0.00,19.96,,2013-03-03 01:30:00,
2013-03-02 17:35:00,51.7,48.5,29.95,SW,227,8.0,-999.0,89,0.00,,,0.00,10.68,,2013-03-03 01:35:00,
2013-03-02 17:40:00,51.7,48.6,29.95,SW,225,7.1,-999.0,89,0.00,,,0.00,11.23,,2013-03-03 01:40:00,
2013-03-02 17:45:00,51.5,48.6,29.95,WSW,248,5.2,-999.0,90,0.00,,,0.00,9.71,,2013-03-03 01:45:00,
2013-03-02 17:50:00,51.5,48.7,29.95,SW,224,2.0,-999.0,90,0.00,,,0.00,5.92,,2013-03-03 01:50:00,
2013-03-02 17:55:00,51.5,48.8,29.95,SSW,194,3.4,-999.0,91,0.00,,,0.00,2.26,,2013-03-03 01:55:00,
2013-03-02 18:00:00,51.8,49.2,29.95,South,170,0.0,-999.0,91,0.00,,,0.00,1.04,,2013-03-03 02:00:00,
2013-03-02 18:05:00,51.8,49.0,29.94,WSW,250,0.0,-999.0,90,0.00,,,0.00,0.55,,2013-03-03 02:05:00,
2013-03-02 18:10:00,52.3,49.3,29.94,SSW,210,0.0,-999.0,89,0.00,,,0.00,1.47,,2013-03-03 02:10:00,
2013-03-02 18:15:00,53.1,49.5,29.96,SSW,193,0.0,-999.0,87,0.00,,,0.00,0.00,,2013-03-03 02:15:00,
2013-03-02 18:20:00,52.9,49.0,29.95,WSW,240,1.3,-999.0,86,0.00,,,0.00,0.06,,2013-03-03 02:20:00,
2013-03-02 18:25:00,53.2,49.1,29.95,NNE,31,0.0,-999.0,86,0.00,,,0.00,0.49,,2013-03-03 02:25:00,
2013-03-02 18:30:00,53.4,49.2,29.95,SW,229,0.0,-999.0,85,0.00,,,0.00,0.06,,2013-03-03 02:30:00,
2013-03-02 18:35:00,53.2,48.6,29.96,SW,214,0.0,-999.0,84,0.00,,,0.00,0.06,,2013-03-03 02:35:00,
2013-03-02 18:40:00,53.3,48.6,29.95,South,191,1.3,-999.0,84,0.00,,,0.00,0.31,,2013-03-03 02:40:00,
2013-03-02 18:45:00,53.5,48.3,29.96,SW,228,0.0,-999.0,82,0.00,,,0.00,0.00,,2013-03-03 02:45:00,
2013-03-02 18:50:00,53.6,48.1,29.96,SW,235,2.7,-999.0,82,0.00,,,0.00,0.00,,2013-03-03 02:50:00,
2013-03-02 18:55:00,53.8,48.2,29.95,SSW,202,1.5,-999.0,81,0.00,,,0.00,0.00,,2013-03-03 02:55:00,
2013-03-02 19:00:00,54.0,48.1,29.95,WSW,254,0.0,-999.0,80,0.00,,,0.00,0.00,,2013-03-03 03:00:00,
2013-03-02 19:05:00,53.8,47.7,29.95,SW,225,4.0,-999.0,80,0.00,,,0.00,0.49,,2013-03-03 03:05:00,
2013-03-02 19:10:00,53.7,47.8,29.95,SW,225,3.2,-999.0,80,0.00,,,0.00,0.73,,2013-03-03 03:10:00,
2013-03-02 19:15:00,53.5,47.7,29.96,SW,231,3.9,-999.0,81,0.00,,,0.00,0.00,,2013-03-03 03:15:00,
2013-03-02 19:20:00,53.9,48.2,29.96,WSW,252,0.0,-999.0,81,0.00,,,0.00,0.98,,2013-03-03 03:20:00,
2013-03-02 19:25:00,53.1,47.6,29.96,SSW,198,8.1,-999.0,81,0.00,,,0.00,0.00,,2013-03-03 03:25:00,
2013-03-02 19:30:00,52.4,47.8,29.96,NNE,33,1.1,-999.0,84,0.00,,,0.00,0.00,,2013-03-03 03:30:00,
2013-03-02 19:35:00,51.8,47.9,29.96,West,270,5.2,-999.0,86,0.00,,,0.00,1.22,,2013-03-03 03:35:00,
2013-03-02 19:40:00,51.4,48.0,29.95,SSW,207,7.8,-999.0,88,0.00,,,0.00,0.00,,2013-03-03 03:40:00,
2013-03-02 19:45:00,51.0,48.1,29.95,SSW,208,5.9,-999.0,90,0.00,,,0.00,0.00,,2013-03-03 03:45:00,
2013-03-02 19:50:00,50.9,48.6,29.96,SSE,155,7.3,-999.0,92,0.00,,,0.00,0.00,,2013-03-03 03:50:00,
2013-03-02 19:55:00,50.9,48.8,29.94,West,259,6.4,-999.0,92,0.00,,,0.00,0.49,,2013-03-03 03:55:00,
2013-03-02 20:00:00,51.0,48.9,29.95,SW,232,6.8,-999.0,93,0.00,,,0.00,0.00,,2013-03-03 04:00:00,
2013-03-02 20:05:00,50.9,48.9,29.96,SW,217,7.3,-999.0,93,0.00,,,0.00,0.43,,2013-03-03 04:05:00,
2013-03-02 20:10:00,50.8,48.9,29.96,SSW,208,3.7,-999.0,93,0.00,,,0.00,0.12,,2013-03-03 04:10:00,
2013-03-02 20:15:00,51.0,49.2,29.95,SSE,167,4.0,-999.0,93,0.00,,,0.00,0.00,,2013-03-03 04:15:00,
2013-03-02 20:20:00,50.9,49.1,29.96,SW,233,10.2,-999.0,93,0.00,,,0.00,0.92,,2013-03-03 04:20:00,
2013-03-02 20:25:00,50.9,49.3,29.97,West,265,4.9,-999.0,94,0.00,,,0.00,0.06,,2013-03-03 04:25:00,
2013-03-02 20:30:00,50.8,49.2,29.96,SSW,211,7.4,-999.0,94,0.00,,,0.00,0.31,,2013-03-03 04:30:00,
2013-03-02 20:35:00,50.8,49.0,29.96,SW,226,7.8,-999.0,94,0.00,,,0.00,0.73,,2013-03-03 04:35:00,
2013-03-02 20:40:00,50.9,49.1,29.97,SSW,192,10.4,-999.0,94,0.00,,,0.00,0.73,,2013-03-03 04:40:00,
2013-03-02 20:45:00,51.0,49.2,29.96,SSW,208,11.2,-999.0,93,0.00,,,0.00,0.00,,2013-03-03 04:45:00,
2013-03-02 20:50:00,50.8,49.0,29.96,WSW,238,11.2,-999.0,93,0.00,,,0.00,0.00,,2013-03-03 04:50:00,
2013-03-02 20:55:00,50.6,48.7,29.96,SW,230,11.4,-999.0,93,0.00,,,0.00,0.00,,2013-03-03 04:55:00,
2013-03-02 21:00:00,50.5,48.7,29.97,WSW,237,10.5,-999.0,94,0.00,,,0.00,0.00,,2013-03-03 05:00:00,
2013-03-02 21:05:00,50.6,48.9,29.96,SW,216,7.8,-999.0,94,0.00,,,0.00,0.00,,2013-03-03 05:05:00,
2013-03-02 21:10:00,50.8,49.2,29.96,SW,221,6.9,-999.0,94,0.00,,,0.00,0.24,,2013-03-03 05:10:00,
2013-03-02 21:15:00,50.8,49.2,29.96,South,188,5.6,-999.0,95,0.00,,,0.00,0.00,,2013-03-03 05:15:00,
2013-03-02 21:20:00,50.6,49.2,29.97,SW,224,7.6,-999.0,95,0.00,,,0.00,0.00,,2013-03-03 05:20:00,
2013-03-02 21:25:00,50.5,49.3,29.96,SW,229,5.2,-999.0,96,0.00,,,0.00,0.24,,2013-03-03 05:25:00,
2013-03-02 21:30:00,50.3,49.1,29.97,SSW,198,10.0,-999.0,96,0.00,,,0.00,0.49,,2013-03-03 05:30:00,
2013-03-02 21:35:00,50.5,49.5,29.97,SSW,211,5.4,-999.0,97,0.00,,,0.00,0.43,,2013-03-03 05:35:00,
2013-03-02 21:40:00,50.4,49.5,29.97,SSE,150,4.9,-999.0,97,0.00,,,0.00,0.24,,2013-03-03 05:40:00,
2013-03-02 21:45:00,50.3,49.5,29.97,SSE,152,5.8,-999.0,97,0.00,,,0.00,0.00,,2013-03-03 05:45:00,
2013-03-02 21:50:00,50.1,49.2,29.97,SW,217,6.3,-999.0,97,0.00,,,0.00,0.00,,2013-03-03 05:50:00,
2013-03-02 21:55:00,50.2,49.5,29.98,WSW,239,5.1,-999.0,97,0.00,,,0.00,0.00,,2013-03-03 05:55:00,
2013-03-02 22:00:00,50.2,49.5,29.97,SW,225,8.8,-999.0,97,0.00,,,0.00,0.00,,2013-03-03 06:00:00,
2013-03-02 22:10:00,50.1,49.2,29.96,SW,228,5.2,-999.0,97,0.00,,,0.00,1.47,,2013-03-03 06:10:00,
2013-03-02 22:15:00,50.2,49.4,29.96,WSW,255,7.1,-999.0,97,0.00,,,0.00,0.00,,2013-03-03 06:15:00,
2013-03-02 22:20:00,50.1,49.1,29.95,SW,230,7.8,-999.0,97,0.00,,,0.00,0.00,,2013-03-03 06:20:00,
2013-03-02 22:25:00,50.0,48.3,29.96,SW,224,6.6,-999.0,94,0.00,,,0.00,0.31,,2013-03-03 06:25:00,
2013-03-02 22:30:00,50.1,49.4,29.97,SE,139,1.8,-999.0,98,0.00,,,0.00,0.73,,2013-03-03 06:30:00,
2013-03-02 22:35:00,50.0,49.3,29.97,WSW,238,5.4,-999.0,98,0.00,,,0.00,0.31,,2013-03-03 06:35:00,
2013-03-02 22:40:00,50.2,49.6,29.96,SSW,204,4.9,-999.0,98,0.00,,,0.00,0.00,,2013-03-03 06:40:00,
2013-03-02 22:45:00,50.0,49.4,29.97,South,183,3.2,-999.0,98,0.00,,,0.00,0.00,,2013-03-03 06:45:00,
2013-03-02 22:50:00,49.9,49.4,29.97,WNW,283,1.6,-999.0,98,0.00,,,0.00,0.00,,2013-03-03 06:50:00,
2013-03-02 22:55:00,50.0,49.4,29.97,WSW,248,4.2,-999.0,98,0.00,,,0.00,0.00,,2013-03-03 06:55:00,
2013-03-02 23:00:00,49.9,49.3,29.96,SSW,209,5.6,-999.0,98,0.00,,,0.00,0.00,,2013-03-03 07:00:00,
2013-03-02 23:05:00,49.9,49.3,29.96,SW,228,3.7,-999.0,98,0.00,,,0.00,0.00,,2013-03-03 07:05:00,
2013-03-02 23:10:00,49.8,49.2,29.96,SSW,210,3.7,-999.0,98,0.00,,,0.00,0.00,,2013-03-03 07:10:00,
2013-03-02 23:15:00,50.0,49.3,29.95,South,182,5.8,-999.0,98,0.00,,,0.00,0.61,,2013-03-03 07:15:00,
2013-03-02 23:20:00,50.0,49.2,29.95,SW,215,8.1,-999.0,97,0.00,,,0.00,0.18,,2013-03-03 07:20:00,
2013-03-02 23:25:00,49.9,49.3,29.96,SSW,211,8.1,-999.0,98,0.00,,,0.00,0.00,,2013-03-03 07:25:00,
2013-03-02 23:30:00,50.0,49.5,29.96,SE,144,4.0,-999.0,98,0.00,,,0.00,0.00,,2013-03-03 07:30:00,
2013-03-02 23:35:00,50.0,49.4,29.96,SSW,198,1.1,-999.0,98,0.00,,,0.00,1.22,,2013-03-03 07:35:00,
2013-03-02 23:40:00,50.2,49.5,29.96,WSW,243,1.5,-999.0,97,0.00,,,0.00,1.22,,2013-03-03 07:40:00,
2013-03-02 23:45:00,50.2,49.6,29.97,SSW,210,3.5,-999.0,98,0.00,,,0.00,0.12,,2013-03-03 07:45:00,
2013-03-02 23:50:00,50.2,49.5,29.96,SW,222,6.9,-999.0,98,0.00,,,0.00,1.22,,2013-03-03 07:50:00,
2013-03-02 23:55:00,50.2,49.5,29.95,South,188,5.6,-999.0,97,0.00,,,0.00,0.43,,2013-03-03 07:55:00,